User: anonymous   Login
Location: Marseilles
(40.7010°N, 83.3930°W)
Time: 23:35:41
(UTC-04:00)
Language:

Cosmos 1459 Rocket - Orbit

View from above orbital plane
View from above orbital plane
View from above satellite
View from above satellite

Ground track
Ground track

The orbit data is extracted from the following two-line orbital elements,

1 14059U 83042B   16179.88972400 -.00000007  00000-0 -22223-4 0  9992
2 14059  82.9715 324.8888 0042667 180.1067 290.1107 13.78558936666948
Epoch (UTC): 27 June 2016 21:21:12
Eccentricity: 0.0042667
inclination: 82.9715°
perigee height: 937 km
apogee height: 1000 km
right ascension of ascending node: 324.8888°
argument of perigee: 180.1067°
revolutions per day: 13.78558936
mean anomaly at epoch: 290.1107°
orbit number at epoch: 66694

The dashed part of the orbit path shows where the satellite is in the earth's shadow,  

DLR